THOR ALTAIR DEB, 2177

Orbit data source: Space-Track

THOR ALTAIR DEB, 2177 is space debris in SSO originally from a launch on Thu, 31 Mar 1966 UTC launched from the Air Force Western Test Range (AFWTR). Debris objects in space refer to the collection of defunct objects orbiting the Earth. Examples of debris include non-operational satellites, rocket bodies, and fragments generated from explosions, collisions, or faulty payload assembly.

Loading next visibility...
Identifier
2177, 1966-026D
Orbit
SSO
Country
Flag of USUS
Related business
Manufacturer
Unknown
Mission
Spacecraft
Bus & Motor
Unknown
Mass
Unknown
Launch date (UTC)
1966-03-31 (60 years ago)
Launch vehicle
Unknown
Launch site
Air Force Western Test Range (AFWTR)
Object type
Payload
Rocket body
Debris
Shape & HBR
Unknown shape, 0.1 m
Radar Cross Section
Small (<0.1 m²)

Expand to show TLE details & history
Last TLE update: 12 hours ago

TLE from 12 hours ago
0 THOR ALTAIR DEB
1 02177U 66026D   26094.90600189  .00004362  00000-0  50708-3 0  9999
2 02177  98.9714  78.0733 0127030 221.0513 138.1083 14.80310120152004
Epoch: 2026-04-04T21:44Z
TLE epoch observation values (Epoch: 2026-04-04T21:44:38.563Z)
Latitude
-0.00006°
Longitude
-81.30643°
Altitude
698.099 km
Speed
7.471 km/s
True Right ascension
05h 12m 17s
True Declination
0° 00' 00"
Sunlit
Object was in daylight at epoch
Visualization orbit readout
Latitude
Unknown
Longitude
Unknown
Altitude
Unknown
Speed
Unknown
Apparent Right ascension
Unknown
Apparent Declination
Unknown
Sunlit
N/A
Visualization observer readout
Local Sidereal Time
15:16:42
Azimuth
Unknown
Elevation
Unknown
Doppler factor
Unknown
Orbital elements
Apogee altitude
714.403 km
Perigee altitude
536.47 km
Semi-major axis
7,003.573 km
Eccentricity
0.0127
Inclination
98.9714°
RAAN
78.0733°
Arg. of periapsis
221.0513°
True anomaly
139.06887°
Mean anomaly
138.1083°
Eccentric anomaly
138.58972°
Mean motion
3.70308 °/min
Orbital period
97.22 mins
BSTAR
0.00050708
Loading maneuver chart data...
Computing Atmospheric mass density...
Loading historical data...
Loading historical data...
Loading historical data...
Loading historical data...
Loading historical data...
Loading historical data...
Loading historical data...

Documentation

Showing up to 5 results
|